Location: Fontevrault
(47.1823°N, 0.0493°E)
Time: 14:17:33
(UTC+00:00)

Cosmos 2219 Rocket - Visible Passes

Search period start: 22 October 2021 00:00
Search period end: 01 November 2021 00:00
Orbit: 828 x 846 km, 71.0° (Epoch: 22 October)

Date Brightness Start Highest point End Pass type
(mag) Time Alt. Az. Time Alt. Az. Time Alt. Az.
22 Oct 4.4 03:51:58 10° N 03:56:16 22° NE 04:00:34 10° E visible
22 Oct 2.2 05:35:15 10° NNW 05:40:55 82° WSW 05:46:36 10° SSE visible
23 Oct 4.5 03:35:36 10° N 03:39:47 21° NE 03:43:57 10° E visible
23 Oct 2.2 05:18:49 10° NNW 05:24:31 88° WSW 05:30:11 10° SSE visible
24 Oct 4.5 03:19:16 10° N 03:23:18 20° NE 03:27:20 10° E visible
24 Oct 2.2 05:02:24 10° NNW 05:08:06 87° ENE 05:13:47 10° SSE visible
24 Oct 4.0 18:14:52 10° SE 18:15:45 12° SE 18:15:45 12° SE visible
24 Oct 3.9 19:55:43 10° SSW 19:57:34 22° SSW 19:57:34 22° SSW visible
25 Oct 4.6 03:02:55 10° N 03:06:49 19° NE 03:10:42 10° E visible
25 Oct 2.2 04:45:59 10° NNW 04:51:41 82° ENE 04:57:22 10° SSE visible
25 Oct 3.7 17:58:48 10° SE 18:01:22 15° ESE 18:01:22 15° ESE visible
25 Oct 2.7 19:39:18 10° SSW 19:43:11 47° SSW 19:43:11 47° SSW visible
26 Oct 4.6 02:47:06 12° N 02:50:20 18° NE 02:54:04 10° E visible
26 Oct 2.3 04:29:34 10° NNW 04:35:16 77° ENE 04:40:56 10° SSE visible
26 Oct 3.8 17:42:48 10° SE 17:45:26 14° E 17:46:51 12° E visible
26 Oct 2.0 19:22:53 10° SSW 19:28:28 86° ESE 19:28:40 83° ENE visible
26 Oct 4.7 21:09:02 10° W 21:10:29 15° WNW 21:10:29 15° WNW visible
27 Oct 4.7 02:32:09 15° NNE 02:33:50 17° NE 02:37:25 10° ENE visible
27 Oct 2.4 04:13:57 14° NNW 04:18:51 72° ENE 04:24:30 10° SE visible
27 Oct 3.5 05:58:15 10° NW 06:02:11 20° W 06:06:07 10° SW visible
27 Oct 3.8 17:26:52 10° ESE 17:29:05 12° E 17:31:18 10° ENE visible
27 Oct 2.0 19:06:29 10° SSW 19:12:04 80° ESE 19:13:56 44° NE visible
27 Oct 4.4 20:52:26 10° W 20:55:44 21° WNW 20:55:44 21° WNW visible
28 Oct 4.7 02:17:27 16° NE 02:17:27 16° NE 02:20:45 10° ENE visible
28 Oct 2.4 03:59:15 27° NNW 04:02:25 67° ENE 04:08:04 10° SE visible
28 Oct 3.4 05:41:42 10° NW 05:45:49 21° W 05:49:57 10° SSW visible
28 Oct 2.0 18:50:06 10° SSW 18:55:39 75° ESE 18:58:58 26° NNE visible
28 Oct 4.2 20:35:50 10° W 20:40:13 23° NW 20:40:45 23° NW visible
29 Oct 4.9 02:02:56 13° ENE 02:02:56 13° ENE 02:04:05 10° ENE visible
29 Oct 2.5 03:44:46 50° N 03:45:59 63° ENE 03:51:37 10° SE visible
29 Oct 3.3 05:26:35 16° WNW 05:29:28 23° WSW 05:33:46 10° SSW visible
29 Oct 2.1 18:33:43 10° SSW 18:39:15 70° ESE 18:43:48 16° NNE visible
29 Oct 4.2 20:19:15 10° W 20:23:45 24° NW 20:25:33 21° NNW visible
30 Oct 2.8 03:30:24 53° E 03:30:24 53° E 03:35:10 10° SE visible
30 Oct 3.2 05:12:13 23° W 05:13:06 24° WSW 05:17:34 10° SSW visible
30 Oct 2.1 18:17:20 10° SSW 18:22:51 65° ESE 18:28:24 10° NNE visible
30 Oct 4.1 20:02:41 10° WSW 20:07:17 26° NW 20:10:09 17° N visible
31 Oct 3.8 03:16:05 27° SE 03:16:05 27° SE 03:18:42 10° SE visible
31 Oct 3.3 04:57:55 24° WSW 04:57:55 24° WSW 05:01:21 10° SSW visible
31 Oct 2.2 18:00:58 10° S 18:06:27 60° ESE 18:12:00 10° NNE visible
31 Oct 4.0 19:46:06 10° WSW 19:50:49 27° NW 19:54:36 14° N visible
